This is the latest recevied weather packets stored in our database for station/object DL8TF-13. If no packets are shown the sender has not sent any weather packets the latest 1 day(s).
| Time | Temp. | Humidity | Pressure | Rain* | Wind** | Luminosity | Snow |
|---|---|---|---|---|---|---|---|
| 1777754024 | 16.67° C | 41% | 984 hPa | - | - | - | - |
| 1777753424 | 17.22° C | 42% | 985 hPa | - | - | - | - |
| 1777752824 | 17.78° C | 43% | 985 hPa | - | - | - | - |
| 1777752224 | 18.33° C | 41% | 985 hPa | - | - | - | - |
| 1777751623 | 18.89° C | 39% | 985 hPa | - | - | - | - |
| 1777751023 | 18.89° C | 40% | 984 hPa | - | - | - | - |
| 1777750423 | 19.44° C | 38% | 984 hPa | - | - | - | - |
| 1777749823 | 20.56° C | 36% | 984 hPa | - | - | - | - |
| 1777749223 | 20.56° C | 36% | 984 hPa | - | - | - | - |
| 1777748623 | 20.56° C | 35% | 984 hPa | - | - | - | - |
| 1777748023 | 21.67° C | 34% | 984 hPa | - | - | - | - |
| 1777747423 | 22.22° C | 32% | 984 hPa | - | - | - | - |
| 1777746823 | 22.78° C | 31% | 984 hPa | - | - | - | - |
| 1777746223 | 23.33° C | 30% | 984 hPa | - | - | - | - |
| 1777745623 | 24.44° C | 29% | 984 hPa | - | - | - | - |
| 1777745023 | 25° C | 24% | 984 hPa | - | - | - | - |
| 1777744423 | 26.67° C | 22% | 984 hPa | - | - | - | - |
| 1777743823 | 27.22° C | 21% | 984 hPa | - | - | - | - |
| 1777743223 | 27.78° C | 21% | 984 hPa | - | - | - | - |
| 1777742623 | 28.33° C | 20% | 984 hPa | - | - | - | - |
| 1777742022 | 28.89° C | 20% | 984 hPa | - | - | - | - |
| 1777741422 | 28.89° C | 19% | 984 hPa | - | - | - | - |
| 1777740822 | 29.44° C | 17% | 984 hPa | - | - | - | - |
| 1777740222 | 29.44° C | 14% | 984 hPa | - | - | - | - |
| 1777739622 | 29.44° C | 13% | 984 hPa | - | - | - | - |
* Rain since midnight (hover to see other rain measurements)
** Current wind speed in m/s (hover to see current wind gust speed)